This is the latest recevied weather packets stored in our database for station/object KQ4OSL. If no packets are shown the sender has not sent any weather packets the latest 10 day(s).
| Time | Temp. | Humidity | Pressure | Rain* | Wind** | Luminosity | Snow |
|---|---|---|---|---|---|---|---|
| 1778112850 | 21.11° C | 97% | 1014.4 hPa | 0 mm | - | 2 W/m² | - |
| 1778112548 | 21.11° C | 97% | 1014.6 hPa | 0 mm | - | 2 W/m² | - |
| 1778112243 | 21.11° C | 97% | 1014.6 hPa | 0 mm | - | 2 W/m² | - |
| 1778111939 | 21.67° C | 97% | 1014.4 hPa | 0 mm | - | 5 W/m² | - |
| 1778111636 | 21.67° C | 96% | 1014.4 hPa | 0 mm | - | 5 W/m² | - |
| 1778111332 | 21.67° C | 95% | 1014.3 hPa | 0 mm | - | 6 W/m² | - |
| 1778111030 | 21.67° C | 95% | 1014.6 hPa | 0 mm | - | 5 W/m² | - |
| 1778110727 | 21.67° C | 95% | 1014.7 hPa | 0 mm | - | 8 W/m² | - |
| 1778110423 | 21.67° C | 94% | 1014.8 hPa | 0 mm | - | 7 W/m² | - |
| 1778110121 | 21.67° C | 94% | 1014.5 hPa | 0 mm | - | 12 W/m² | - |
| 1778109816 | 21.67° C | 94% | 1014.6 hPa | 0 mm | - | 15 W/m² | - |
| 1778109513 | 21.67° C | 95% | 1014.6 hPa | 0 mm | - | 20 W/m² | - |
| 1778109210 | 21.67° C | 95% | 1014.4 hPa | 0 mm | - | 13 W/m² | - |
| 1778108908 | 21.67° C | 95% | 1014.4 hPa | 0 mm | - | 14 W/m² | - |
| 1778108604 | 21.67° C | 94% | 1014.2 hPa | 0 mm | - | 32 W/m² | - |
| 1778108300 | 22.22° C | 94% | 1014.4 hPa | 0 mm | - | 26 W/m² | - |
| 1778107998 | 22.22° C | 93% | 1014.3 hPa | 0 mm | - | 38 W/m² | - |
| 1778107695 | 22.22° C | 92% | 1014.6 hPa | 0 mm | - | 16 W/m² | - |
| 1778107392 | 22.22° C | 93% | 1014.7 hPa | 0 mm | - | 16 W/m² | - |
| 1778107088 | 22.22° C | 92% | 1014.7 hPa | 0 mm | - | 19 W/m² | - |
| 1778106783 | 22.22° C | 93% | 1014.6 hPa | 0 mm | - | 24 W/m² | - |
| 1778106481 | 22.22° C | 92% | 1014.7 hPa | 0 mm | - | 28 W/m² | - |
| 1778106176 | 22.22° C | 91% | 1014.6 hPa | 0 mm | - | 15 W/m² | - |
| 1778105874 | 22.22° C | 91% | 1014.4 hPa | 0 mm | - | 18 W/m² | - |
| 1778105572 | 22.22° C | 91% | 1014.3 hPa | 0 mm | - | 13 W/m² | - |
* Rain latest hour (hover to see other rain measurements)
** Current wind speed in m/s (hover to see current wind gust speed)